When you browse on this site, cookies collect data to enhance your experience and personalize the content and advertising you see.
Visit our Privacy Policy to learn more. By continuing to use the site, you agree to this use of cookies and data.
  • In Hungary
  • List of Countries
  • For 7 days
  • Water Temperature
  • Satellite Maps
  • Weather Map
  • News
  • Weather Widgets
  • user-avatar
    Login

    Hourly Weather Bremen

    Today, 18 July, Thursday

    Time Temperature Precipitation Wind Pressure Humidity
    00:00 +14°C° 0 mm 1 mps 759 mmHg 93%
    01:00 +13°C° 0 mm 1 mps 759 mmHg 93%
    02:00 +13°C° 0 mm 1 mps 759 mmHg 93%
    03:00 +13°C° 0 mm 1 mps 759 mmHg 94%
    04:00 +13°C° 0 mm 1 mps 758 mmHg 94%
    05:00 +15°C° 0 mm 1 mps 758 mmHg 91%
    06:00 +16°C° 0 mm 1 mps 758 mmHg 88%
    07:00 +18°C° 0 mm 1 mps 758 mmHg 85%
    08:00 +19°C° 0 mm 1 mps 758 mmHg 78%
    09:00 +20°C° 0 mm 2 mps 758 mmHg 72%
    10:00 +23°C° 0 mm 2 mps 758 mmHg 66%
    11:00 +23°C° 0.1 mm 2 mps 758 mmHg 63%
    12:00 +24°C° 0.1 mm 2 mps 758 mmHg 61%
    13:00 +25°C° 0.1 mm 3 mps 757 mmHg 59%
    14:00 +25°C° 0.2 mm 3 mps 757 mmHg 59%
    15:00 +25°C° 0.2 mm 2 mps 757 mmHg 60%
    16:00 +25°C° 0.2 mm 2 mps 757 mmHg 60%
    17:00 +24°C° 0.3 mm 2 mps 757 mmHg 66%
    18:00 +23°C° 0.3 mm 2 mps 757 mmHg 72%
    19:00 +21°C° 0.3 mm 2 mps 757 mmHg 77%
    20:00 +20°C° 0.4 mm 2 mps 757 mmHg 82%
    21:00 +19°C° 0.4 mm 2 mps 757 mmHg 88%
    22:00 +17°C° 0.4 mm 2 mps 758 mmHg 93%
    23:00 +17°C° 0 mm 2 mps 758 mmHg 93%

    Tomorrow, 19 July, Friday

    Time Temperature Precipitation Wind Pressure Humidity
    00:00 +17°C° 0 mm 2 mps 758 mmHg 93%
    01:00 +16°C° 0 mm 2 mps 758 mmHg 94%
    02:00 +16°C° 0.1 mm 2 mps 758 mmHg 94%
    03:00 +16°C° 0.1 mm 2 mps 758 mmHg 95%
    04:00 +16°C° 0.1 mm 2 mps 758 mmHg 96%
    05:00 +17°C° 0.2 mm 2 mps 758 mmHg 94%
    06:00 +17°C° 0.2 mm 3 mps 758 mmHg 93%
    07:00 +18°C° 0.2 mm 3 mps 758 mmHg 91%
    08:00 +19°C° 0.2 mm 3 mps 759 mmHg 88%
    09:00 +20°C° 0.2 mm 3 mps 759 mmHg 85%
    10:00 +21°C° 0.2 mm 3 mps 759 mmHg 82%
    11:00 +21°C° 0.2 mm 3 mps 759 mmHg 76%
    12:00 +22°C° 0.2 mm 3 mps 759 mmHg 69%
    13:00 +24°C° 0.2 mm 3 mps 759 mmHg 63%
    14:00 +24°C° 0 mm 3 mps 759 mmHg 62%
    15:00 +24°C° 0 mm 3 mps 759 mmHg 62%
    16:00 +24°C° 0 mm 3 mps 759 mmHg 61%
    17:00 +22°C° 0 mm 3 mps 759 mmHg 66%
    18:00 +21°C° 0 mm 2 mps 759 mmHg 70%
    19:00 +20°C° 0 mm 2 mps 759 mmHg 75%
    20:00 +19°C° 0 mm 2 mps 760 mmHg 75%
    21:00 +18°C° 0 mm 2 mps 760 mmHg 76%
    22:00 +17°C° 0 mm 2 mps 760 mmHg 77%
    23:00 +16°C° 0 mm 2 mps 760 mmHg 79%

    Day after tomorrow, 20 July, Saturday

    Time Temperature Precipitation Wind Pressure Humidity
    00:00 +16°C° 0 mm 3 mps 760 mmHg 80%
    01:00 +16°C° 0 mm 3 mps 760 mmHg 81%
    02:00 +16°C° 0 mm 3 mps 760 mmHg 84%
    03:00 +16°C° 0 mm 2 mps 759 mmHg 87%
    04:00 +16°C° 0 mm 2 mps 759 mmHg 89%
    05:00 +17°C° 0 mm 3 mps 759 mmHg 86%
    06:00 +18°C° 0 mm 3 mps 759 mmHg 84%
    07:00 +19°C° 0 mm 3 mps 758 mmHg 81%
    08:00 +21°C° 0 mm 3 mps 758 mmHg 75%
    09:00 +22°C° 0 mm 4 mps 758 mmHg 69%
    10:00 +25°C° 0 mm 4 mps 758 mmHg 63%
    11:00 +25°C° 0.2 mm 5 mps 758 mmHg 64%
    12:00 +26°C° 0.2 mm 5 mps 758 mmHg 65%
    13:00 +26°C° 0.2 mm 6 mps 758 mmHg 66%
    14:00 +26°C° 0.3 mm 5 mps 758 mmHg 66%
    15:00 +26°C° 0.3 mm 5 mps 757 mmHg 66%
    16:00 +25°C° 0.3 mm 5 mps 757 mmHg 66%
    17:00 +25°C° 0.6 mm 3 mps 757 mmHg 72%
    18:00 +24°C° 0.6 mm 2 mps 758 mmHg 77%
    19:00 +23°C° 0.6 mm 1 mps 758 mmHg 82%
    20:00 +22°C° 1.4 mm 1 mps 758 mmHg 85%
    21:00 +20°C° 1.4 mm 2 mps 758 mmHg 87%
    22:00 +19°C° 1.4 mm 3 mps 758 mmHg 90%
    23:00 +18°C° 0 mm 3 mps 758 mmHg 91%

    21 July, Sunday

    Time Temperature Precipitation Wind Pressure Humidity
    00:00 +18°C° 0 mm 3 mps 758 mmHg 93%
    01:00 +17°C° 0 mm 3 mps 758 mmHg 94%
    02:00 +17°C° 0 mm 3 mps 758 mmHg 94%
    03:00 +16°C° 0 mm 3 mps 759 mmHg 94%
    04:00 +15°C° 0 mm 4 mps 759 mmHg 95%
    05:00 +15°C° 0 mm 4 mps 759 mmHg 94%
    06:00 +16°C° 0 mm 5 mps 760 mmHg 93%
    07:00 +17°C° 0 mm 5 mps 760 mmHg 92%
    08:00 +19°C° 0 mm 5 mps 761 mmHg 87%
    09:00 +20°C° 0 mm 5 mps 761 mmHg 82%
    10:00 +22°C° 0 mm 6 mps 762 mmHg 78%
    11:00 +22°C° 0.3 mm 5 mps 762 mmHg 78%
    12:00 +22°C° 0.3 mm 5 mps 763 mmHg 78%
    13:00 +22°C° 0.3 mm 5 mps 763 mmHg 79%
    14:00 +22°C° 0.2 mm 5 mps 763 mmHg 77%
    15:00 +23°C° 0.2 mm 5 mps 763 mmHg 75%
    16:00 +23°C° 0.2 mm 5 mps 764 mmHg 73%
    17:00 +22°C° 0 mm 4 mps 764 mmHg 75%
    18:00 +21°C° 0 mm 4 mps 765 mmHg 78%
    19:00 +21°C° 0 mm 3 mps 765 mmHg 80%
    20:00 +19°C° 0 mm 3 mps 765 mmHg 85%
    21:00 +18°C° 0 mm 3 mps 766 mmHg 91%
    22:00 +16°C° 0 mm 2 mps 766 mmHg 96%
    23:00 +15°C° 0 mm 2 mps 766 mmHg 96%

    22 July, Monday

    Time Temperature Precipitation Wind Pressure Humidity
    00:00 +14°C° 0 mm 2 mps 766 mmHg 96%
    01:00 +14°C° 0 mm 2 mps 767 mmHg 97%
    02:00 +13°C° 0 mm 2 mps 766 mmHg 97%
    03:00 +13°C° 0 mm 1 mps 766 mmHg 97%
    04:00 +13°C° 0 mm 1 mps 766 mmHg 97%
    05:00 +14°C° 0 mm 1 mps 767 mmHg 95%
    06:00 +15°C° 0 mm 1 mps 767 mmHg 92%
    07:00 +16°C° 0 mm 1 mps 767 mmHg 90%
    08:00 +19°C° 0 mm 1 mps 767 mmHg 82%
    09:00 +20°C° 0 mm 1 mps 768 mmHg 75%
    10:00 +22°C° 0 mm 1 mps 768 mmHg 68%
    11:00 +23°C° 0 mm 1 mps 768 mmHg 63%
    12:00 +23°C° 0 mm 0 mps 768 mmHg 58%
    13:00 +24°C° 0 mm 0 mps 767 mmHg 54%
    14:00 +24°C° 0 mm 0 mps 767 mmHg 53%
    15:00 +24°C° 0 mm 0 mps 767 mmHg 52%
    16:00 +24°C° 0 mm 0 mps 767 mmHg 51%
    17:00 +26°C° 0 mm 1 mps 767 mmHg 57%
    18:00 +25°C° 0 mm 1 mps 767 mmHg 63%
    19:00 +24°C° 0 mm 2 mps 767 mmHg 68%
    20:00 +21°C° 0 mm 2 mps 767 mmHg 74%
    21:00 +19°C° 0 mm 2 mps 767 mmHg 80%
    22:00 +18°C° 0 mm 2 mps 767 mmHg 87%
    23:00 +17°C° 0 mm 2 mps 767 mmHg 88%

    23 July, Tuesday

    Time Temperature Precipitation Wind Pressure Humidity
    00:00 +17°C° 0 mm 2 mps 767 mmHg 90%
    01:00 +16°C° 0 mm 2 mps 767 mmHg 91%
    02:00 +16°C° 0 mm 2 mps 767 mmHg 92%
    03:00 +16°C° 0 mm 2 mps 767 mmHg 92%
    04:00 +16°C° 0 mm 2 mps 767 mmHg 92%
    05:00 +17°C° 0 mm 3 mps 767 mmHg 88%
    06:00 +18°C° 0 mm 3 mps 767 mmHg 84%
    07:00 +19°C° 0 mm 3 mps 766 mmHg 80%
    08:00 +21°C° 0 mm 3 mps 766 mmHg 75%
    09:00 +23°C° 0 mm 4 mps 766 mmHg 69%
    10:00 +26°C° 0 mm 4 mps 766 mmHg 63%
    11:00 +27°C° 0 mm 4 mps 766 mmHg 60%
    12:00 +28°C° 0 mm 4 mps 766 mmHg 56%
    13:00 +29°C° 0 mm 4 mps 765 mmHg 52%
    14:00 +29°C° 0 mm 4 mps 765 mmHg 51%
    15:00 +30°C° 0 mm 4 mps 765 mmHg 51%
    16:00 +30°C° 0 mm 4 mps 764 mmHg 50%
    17:00 +29°C° 0 mm 3 mps 764 mmHg 56%
    18:00 +28°C° 0 mm 3 mps 764 mmHg 61%
    19:00 +27°C° 0 mm 3 mps 764 mmHg 67%
    20:00 +25°C° 0 mm 3 mps 764 mmHg 66%
    21:00 +22°C° 0 mm 3 mps 764 mmHg 65%
    22:00 +21°C° 0 mm 4 mps 764 mmHg 65%
    23:00 +20°C° 0 mm 4 mps 764 mmHg 67%
    Show more